OK,97,21,751,97,2014-10-01T01:40:00,0,28072078,192813
OK,97,21,751,97,2014-10-01T01:45:00,0,28072521,192813
OK,97,21,751,97,2014-10-01T01:50:00,0,28072970,192813
OK,97,21,751,97,2014-10-01T01:55:00,0,28073417,192813
OK,97,21,751,97,2014-10-01T02:05:00,0,28074183,192813
OK,97,21,751,97,2014-10-01T02:10:00,0,28074632,192813
OK,97,21,751,97,2014-10-01T02:15:00,0,28075072,192813
OK,97,21,751,97,2014-10-01T02:20:00,0,28075521,192813
OK,97,21,751,97,2014-10-01T02:25:00,0,28075970,192813
OK,97,21,751,97,2014-10-01T02:30:00,0,28076353,192813
OK,97,21,751,97,2014-10-01T02:35:00,0,28076802,192813
OK,97,21,751,97,2014-10-01T02:40:00,0,28077251,192813
OK,97,21,751,97,2014-10-01T02:45:00,0,28077700,192813
OK,97,21,751,97,2014-10-01T02:50:00,0,28078103,192813
OK,97,21,751,97,2014-10-01T02:55:00,0,28078552,192813
OK,97,21,751,97,2014-10-01T03:00:00,0,28078997,192813
OK,97,21,751,97,2014-10-01T03:05:00,0,28079445,192813
OK,97,21,751,97,2014-10-01T03:10:00,0,28079888,192813
OK,97,21,751,97,2014-10-01T03:20:00,0,28080671,192813
OK,97,21,751,97,2014-10-01T03:25:00,0,28081120,192813
OK,97,21,751,97,2014-10-01T03:30:00,0,28081568,192813
OK,97,21,751,97,2014-10-01T03:35:00,0,28082016,192813
OK,97,21,751,97,2014-10-01T03:40:00,0,28082465,192813
OK,97,21,751,97,2014-10-01T03:45:00,0,28082898,192813
OK,97,21,751,97,2014-10-01T03:50:00,0,28083330,192813
OK,97,21,751,97,2014-10-01T03:55:00,0,28083779,192813
OK,97,21,751,97,2014-10-01T04:00:00,0,28084228,192813
OK,97,21,751,97,2014-10-01T04:05:00,0,28084669,192813
OK,97,21,751,97,2014-10-01T04:10:00,0,28085094,192813
OK,97,21,751,97,2014-10-01T04:15:00,0,28085543,192813
OK,97,21,751,97,2014-10-01T04:20:00,0,28085988,192813
OK,97,21,751,97,2014-10-01T04:25:00,0,28086437,192813
OK,97,21,751,97,2014-10-01T04:30:00,0,28086879,192813
OK,97,21,751,97,2014-10-01T04:35:00,0,28087328,192813
OK,97,21,751,97,2014-10-01T04:40:00,0,28087773,192813
OK,97,21,751,97,2014-10-01T04:45:00,0,28088222,192813
OK,97,21,751,97,2014-10-01T04:50:00,0,28088646,192813
OK,97,21,751,97,2014-10-01T04:55:00,0,28089095,192813
OK,97,21,751,97,2014-10-01T05:00:00,0,28089525,192813
OK,97,21,751,97,2014-10-01T05:05:00,0,28089974,192813
OK,97,21,751,97,2014-10-01T05:10:00,0,28090423,192813
OK,97,21,751,97,2014-10-01T05:15:00,0,28090767,192813
OK,97,21,751,97,2014-10-01T05:20:00,0,28091216,192813
OK,97,21,751,97,2014-10-01T05:25:00,0,28091665,192813
OK,97,21,751,97,2014-10-01T05:30:00,0,28092082,192813
OK,44,47,751,44,2014-10-01T05:35:00,3,28092531,192813
OK,44,47,751,44,2014-10-01T05:40:00,3,28092975,192813
OK,78,27,751,78,2014-10-01T05:45:00,2,28093416,192813
OK,112,18,751,112,2014-10-01T05:50:00,1,28093847,192813
OK,51,41,751,51,2014-10-01T05:55:00,1,28094295,192813
OK,41,51,751,41,2014-10-01T06:00:00,1,28094707,192813
OK,41,51,751,41,2014-10-01T06:05:00,1,28095152,192813
OK,110,19,751,110,2014-10-01T06:10:00,1,28095599,192813
OK,83,25,751,83,2014-10-01T06:15:00,2,28096048,192813
OK,56,37,751,56,2014-10-01T06:20:00,1,28096461,192813
OK,56,37,751,56,2014-10-01T06:25:00,0,28096910,192813
OK,56,37,751,56,2014-10-01T06:30:00,0,28097344,192813
OK,56,37,751,56,2014-10-01T06:35:00,0,28097793,192813
OK,56,37,751,56,2014-10-01T06:40:00,0,28098242,192813
OK,59,35,751,59,2014-10-01T06:45:00,3,28098679,192813
OK,58,36,751,58,2014-10-01T06:50:00,1,28099123,192813
OK,58,36,751,58,2014-10-01T07:00:00,0,28099914,192813
OK,58,36,751,58,2014-10-01T07:10:00,0,28100670,192813
OK,78,27,751,78,2014-10-01T07:20:00,1,28101490,192813
OK,78,27,751,78,2014-10-01T07:25:00,0,28101939,192813
OK,78,27,751,78,2014-10-01T07:30:00,0,28102375,192813
OK,78,27,751,78,2014-10-01T07:35:00,0,28102824,192813
OK,70,30,751,70,2014-10-01T07:40:00,2,28103251,192813
OK,90,23,751,90,2014-10-01T07:45:00,4,28103698,192813
OK,92,22,751,92,2014-10-01T07:50:00,1,28104143,192813
OK,92,22,751,92,2014-10-01T07:55:00,0,28104588,192813
OK,92,22,751,92,2014-10-01T08:00:00,0,28105029,192813
OK,92,22,751,92,2014-10-01T08:05:00,0,28105474,192813
OK,80,26,751,80,2014-10-01T08:10:00,2,28105914,192813
OK,84,25,751,84,2014-10-01T08:15:00,1,28106363,192813
OK,84,25,751,84,2014-10-01T08:20:00,0,28106799,192813
OK,107,19,751,107,2014-10-01T08:25:00,2,28107198,192813
OK,94,22,751,94,2014-10-01T08:30:00,1,28107638,192813
OK,93,22,751,93,2014-10-01T08:35:00,1,28108087,192813
OK,93,22,751,93,2014-10-01T08:40:00,1,28108526,192813
OK,57,37,751,57,2014-10-01T08:45:00,1,28108975,192813
OK,57,37,751,57,2014-10-01T08:50:00,1,28109403,192813
OK,104,20,751,104,2014-10-01T09:00:00,0,28110195,192813
OK,104,20,751,104,2014-10-01T09:05:00,0,28110644,192813
OK,90,23,751,90,2014-10-01T09:10:00,2,28111067,192813
OK,511,4,751,511,2014-10-01T09:15:00,3,28111516,192813
OK,541,3,751,541,2014-10-01T09:20:00,1,28111945,192813
OK,83,25,751,83,2014-10-01T09:30:00,1,28112735,192813
OK,101,20,751,101,2014-10-01T09:35:00,1,28113184,192813
OK,89,23,751,89,2014-10-01T09:40:00,5,28113608,192813
OK,89,23,751,89,2014-10-01T09:45:00,3,28114057,192813
OK,50,42,751,50,2014-10-01T09:50:00,1,28114489,192813
OK,151,13,751,151,2014-10-01T10:00:00,3,28115292,192813
OK,151,13,751,151,2014-10-01T10:05:00,3,28115741,192813
OK,52,40,751,52,2014-10-01T10:10:00,2,28116153,192813
OK,52,40,751,52,2014-10-01T10:15:00,0,28116602,192813
OK,52,40,751,52,2014-10-01T10:20:00,0,28117010,192813
OK,52,40,751,52,2014-10-01T10:25:00,0,28117459,192813
OK,82,25,751,82,2014-10-01T10:30:00,1,28117884,192813
OK,68,31,751,68,2014-10-01T10:35:00,2,28118333,192813
OK,54,39,751,54,2014-10-01T10:40:00,3,28118778,192813
OK,79,26,751,79,2014-10-01T10:45:00,3,28119225,192813
OK,83,25,751,83,2014-10-01T10:50:00,2,28119669,192813
OK,104,20,751,104,2014-10-01T10:55:00,3,28120117,192813
OK,104,20,751,104,2014-10-01T11:00:00,3,28120565,192813
OK,41,51,751,41,2014-10-01T11:10:00,3,28121397,192813
OK,81,26,751,81,2014-10-01T11:15:00,6,28121846,192813
OK,83,25,751,83,2014-10-01T11:20:00,7,28122284,192813
OK,87,24,751,87,2014-10-01T11:25:00,5,28122733,192813
OK,76,27,751,76,2014-10-01T11:30:00,2,28123174,192813
OK,87,24,751,87,2014-10-01T11:35:00,3,28123623,192813
OK,78,27,751,78,2014-10-01T11:40:00,4,28124055,192813
OK,78,27,751,78,2014-10-01T11:45:00,3,28124504,192813
OK,76,27,751,76,2014-10-01T11:50:00,2,28124906,192813
OK,61,34,751,61,2014-10-01T11:55:00,2,28125355,192813
OK,89,23,751,89,2014-10-01T12:00:00,4,28125784,192813
OK,52,40,751,52,2014-10-01T12:10:00,1,28126585,192813
OK,97,21,751,97,2014-10-01T12:15:00,3,28127034,192813
OK,94,22,751,94,2014-10-01T12:20:00,4,28127483,192813
OK,90,23,751,90,2014-10-01T12:25:00,1,28127932,192813
OK,90,23,751,90,2014-10-01T12:30:00,1,28128360,192813
OK,77,27,751,77,2014-10-01T12:35:00,3,28128809,192813
OK,84,25,751,84,2014-10-01T12:40:00,4,28129244,192813
OK,108,19,751,108,2014-10-01T12:45:00,2,28129693,192813
OK,70,30,751,70,2014-10-01T12:50:00,4,28130127,192813
OK,70,30,751,70,2014-10-01T12:55:00,4,28130576,192813
OK,83,25,751,83,2014-10-01T13:00:00,0,28131004,192813
OK,83,25,751,83,2014-10-01T13:05:00,0,28131453,192813
OK,132,15,751,132,2014-10-01T13:10:00,3,28131890,192813
OK,105,20,751,105,2014-10-01T13:15:00,9,28132339,192813
OK,101,20,751,101,2014-10-01T13:20:00,8,28132777,192813
OK,188,11,751,188,2014-10-01T13:25:00,4,28133224,192813
OK,219,9,751,219,2014-10-01T13:30:00,5,28133662,192813
OK,219,9,751,219,2014-10-01T13:35:00,5,28134110,192813
OK,138,15,751,138,2014-10-01T13:40:00,4,28134550,192813
OK,105,20,751,105,2014-10-01T13:45:00,4,28134994,192813
OK,109,19,751,109,2014-10-01T13:50:00,3,28135418,192813
OK,93,22,751,93,2014-10-01T13:55:00,2,28135866,192813
OK,105,20,751,105,2014-10-01T14:00:00,3,28136304,192813
OK,105,20,751,105,2014-10-01T14:05:00,3,28136753,192813
OK,54,39,751,54,2014-10-01T14:10:00,4,28137193,192813
OK,82,25,751,82,2014-10-01T14:15:00,3,28137642,192813
OK,72,29,751,72,2014-10-01T14:20:00,4,28138076,192813
OK,82,25,751,82,2014-10-01T14:25:00,0,28138523,192813
OK,99,21,751,99,2014-10-01T14:30:00,3,28138953,192813
OK,84,25,751,84,2014-10-01T14:35:00,2,28139393,192813
OK,98,21,751,98,2014-10-01T14:40:00,3,28139813,192813
OK,73,28,751,73,2014-10-01T14:45:00,4,28140262,192813
OK,52,40,751,52,2014-10-01T14:50:00,3,28140704,192813
OK,52,40,751,52,2014-10-01T14:55:00,0,28141150,192813
OK,55,38,751,55,2014-10-01T15:00:00,2,28141579,192813
OK,86,24,751,86,2014-10-01T15:05:00,4,28142028,192813
OK,99,21,751,99,2014-10-01T15:10:00,3,28142456,192813
OK,77,27,751,77,2014-10-01T15:15:00,2,28142905,192813
OK,102,20,751,102,2014-10-01T15:20:00,3,28143332,192813
OK,109,19,751,109,2014-10-01T15:25:00,5,28143781,192813
OK,116,18,751,116,2014-10-01T15:30:00,3,28144229,192813
OK,119,17,751,119,2014-10-01T15:35:00,0,28144678,192813
OK,104,20,751,104,2014-10-01T15:40:00,2,28145089,192813
OK,100,21,751,100,2014-10-01T15:45:00,1,28145513,192813
OK,56,37,751,56,2014-10-01T15:50:00,3,28145962,192813
OK,72,29,751,72,2014-10-01T15:55:00,2,28146411,192813
OK,72,29,751,72,2014-10-01T16:00:00,0,28146860,192813
OK,72,29,751,72,2014-10-01T16:05:00,0,28147268,192813
OK,90,23,751,90,2014-10-01T16:10:00,1,28147712,192813
OK,107,19,751,107,2014-10-01T16:15:00,2,28148152,192813
OK,118,17,751,118,2014-10-01T16:20:00,1,28148562,192813
OK,118,17,751,118,2014-10-01T16:25:00,0,28149011,192813
OK,118,17,751,118,2014-10-01T16:30:00,0,28149450,192813
OK,118,17,751,118,2014-10-01T16:35:00,0,28149899,192813
OK,101,20,751,101,2014-10-01T16:40:00,1,28150325,192813
OK,73,28,751,73,2014-10-01T16:45:00,2,28150774,192813
OK,46,45,751,46,2014-10-01T16:50:00,1,28151192,192813
OK,46,45,751,46,2014-10-01T16:55:00,0,28151641,192813
OK,91,23,751,91,2014-10-01T17:05:00,1,28152090,192813
OK,91,23,751,91,2014-10-01T17:10:00,3,28152539,192813
OK,83,25,751,83,2014-10-01T17:15:00,0,28152985,192813
OK,83,25,751,83,2014-10-01T17:20:00,0,28153432,192813
OK,83,25,751,83,2014-10-01T17:25:00,0,28153881,192813
OK,88,23,751,88,2014-10-01T17:30:00,1,28154291,192813
OK,93,22,751,93,2014-10-01T17:35:00,0,28154740,192813
OK,93,22,751,93,2014-10-01T17:40:00,0,28155182,192813
OK,83,25,751,83,2014-10-01T17:45:00,1,28155630,192813
OK,76,27,751,76,2014-10-01T17:50:00,1,28156048,192813
OK,76,27,751,76,2014-10-01T17:55:00,0,28156497,192813
OK,90,23,751,90,2014-10-01T18:00:00,1,28156945,192813
OK,90,23,751,90,2014-10-01T18:05:00,0,28157384,192813
OK,90,23,751,90,2014-10-01T18:10:00,0,28157813,192813
OK,90,23,751,90,2014-10-01T18:15:00,0,28158262,192813
OK,90,23,751,90,2014-10-01T18:20:00,0,28158706,192813
OK,90,23,751,90,2014-10-01T18:25:00,0,28159151,192813
OK,88,23,751,88,2014-10-01T18:35:00,0,28159933,192813
OK,89,23,751,89,2014-10-01T18:40:00,1,28160382,192813
OK,84,25,751,84,2014-10-01T18:45:00,3,28160831,192813
OK,82,25,751,82,2014-10-01T18:50:00,0,28161269,192813
OK,82,25,751,82,2014-10-01T18:55:00,0,28161716,192813
OK,80,26,751,80,2014-10-01T19:00:00,1,28162135,192813
OK,80,26,751,80,2014-10-01T19:05:00,1,28162584,192813
OK,82,25,751,82,2014-10-01T19:10:00,1,28162978,192813
OK,82,25,751,82,2014-10-01T19:15:00,0,28163417,192813
OK,82,25,751,82,2014-10-01T19:20:00,0,28163865,192813
OK,68,31,751,68,2014-10-01T19:25:00,2,28164314,192813
OK,48,43,751,48,2014-10-01T19:30:00,1,28164745,192813
OK,83,25,751,83,2014-10-01T19:35:00,1,28165194,192813
OK,83,25,751,83,2014-10-01T19:40:00,0,28165619,192813
OK,64,32,751,64,2014-10-01T19:45:00,2,28166067,192813
OK,82,25,751,82,2014-10-01T19:55:00,0,28166870,192813
OK,82,25,751,82,2014-10-01T20:00:00,0,28167314,192813
OK,70,30,751,70,2014-10-01T20:10:00,1,28168181,192813
OK,70,30,751,70,2014-10-01T20:20:00,0,28169075,192813
OK,70,30,751,70,2014-10-01T20:25:00,0,28169524,192813
OK,91,23,751,91,2014-10-01T20:30:00,1,28169965,192813
OK,91,23,751,91,2014-10-01T20:35:00,0,28170395,192813
OK,91,23,751,91,2014-10-01T20:45:00,0,28171287,192813
OK,91,23,751,91,2014-10-01T20:50:00,0,28171725,192813
OK,91,23,751,91,2014-10-01T20:55:00,0,28172173,192813
OK,91,23,751,91,2014-10-01T21:00:00,0,28173065,192813
OK,91,23,751,91,2014-10-01T21:10:00,0,28173514,192813
OK,91,23,751,91,2014-10-01T21:20:00,0,28174404,192813
OK,91,23,751,91,2014-10-01T21:25:00,0,28175226,192813
OK,91,23,751,91,2014-10-01T21:30:00,0,28175675,192813
OK,91,23,751,91,2014-10-01T21:40:00,0,28176124,192813
OK,91,23,751,91,2014-10-01T21:45:00,0,28176573,192813
OK,91,23,751,91,2014-10-01T21:50:00,0,28177011,192813
OK,91,23,751,91,2014-10-01T21:55:00,0,28177815,192813
OK,91,23,751,91,2014-10-01T22:05:00,0,28178264,192813
OK,91,23,751,91,2014-10-01T22:10:00,0,28178713,192813
OK,91,23,751,91,2014-10-01T22:15:00,0,28179160,192813
OK,91,23,751,91,2014-10-01T22:20:00,0,28179594,192813
OK,91,23,751,91,2014-10-01T22:25:00,0,28180037,192813
OK,91,23,751,91,2014-10-01T22:30:00,0,28180882,192813
OK,91,23,751,91,2014-10-01T22:35:00,0,28181306,192813
OK,91,23,751,91,2014-10-01T22:40:00,0,28181754,192813
OK,91,23,751,91,2014-10-01T22:45:00,0,28182201,192813
OK,91,23,751,91,2014-10-01T22:55:00,0,28182650,192813
OK,91,23,751,91,2014-10-01T23:00:00,0,28183500,192813
OK,91,23,751,91,2014-10-01T23:05:00,0,28183945,192813
OK,91,23,751,91,2014-10-01T23:10:00,0,28184394,192813
OK,91,23,751,91,2014-10-01T23:15:00,0,28184829,192813
OK,91,23,751,91,2014-10-01T23:20:00,0,28185277,192813
OK,91,23,751,91,2014-10-01T23:25:00,0,28185708,192813
OK,91,23,751,91,2014-10-01T23:30:00,0,28186100,192813
OK,91,23,751,91,2014-10-01T23:35:00,0,28186549,192813
OK,91,23,751,91,2014-10-01T23:40:00,0,28186947,192813
OK,91,23,751,91,2014-10-01T23:45:00,0,28187389,192813
OK,91,23,751,91,2014-10-01T23:50:00,0,28187838,192813
OK,91,23,751,91,2014-10-01T23:55:00,0,28188279,192813
OK,91,23,751,91,2014-10-02T00:00:00,0,28188715,192813
OK,91,23,751,91,2014-10-02T00:10:00,0,28189164,192813
OK,91,23,751,91,2014-10-02T00:15:00,0,28189613,192813
OK,91,23,751,91,2014-10-02T00:20:00,0,28190035,192813
OK,91,23,751,91,2014-10-02T00:30:00,0,28190837,192813
OK,91,23,751,91,2014-10-02T00:35:00,0,28191286,192813
OK,91,23,751,91,2014-10-02T00:45:00,0,28192041,192813
OK,91,23,751,91,2014-10-02T00:50:00,0,28192490,192813
OK,91,23,751,91,2014-10-02T00:55:00,0,28192923,192813
OK,91,23,751,91,2014-10-02T01:05:00,0,28193734,192813
OK,91,23,751,91,2014-10-02T01:10:00,0,28194183,192813
OK,91,23,751,91,2014-10-02T01:15:00,0,28194632,192813
OK,91,23,751,91,2014-10-02T01:25:00,0,28195317,192813
OK,91,23,751,91,2014-10-02T01:30:00,0,28195766,192813
OK,91,23,751,91,2014-10-02T01:35:00,0,28196215,192813
OK,91,23,751,91,2014-10-02T01:40:00,0,28196499,192813
OK,91,23,751,91,2014-10-02T01:45:00,0,28196946,192813
OK,91,23,751,91,2014-10-02T01:50:00,0,28197371,192813
OK,91,23,751,91,2014-10-02T01:55:00,0,28197820,192813
OK,91,23,751,91,2014-10-02T02:00:00,0,28198268,192813
OK,91,23,751,91,2014-10-02T02:05:00,0,28198716,192813
OK,91,23,751,91,2014-10-02T02:10:00,0,28199165,192813
OK,91,23,751,91,2014-10-02T02:15:00,0,28199537,192813
OK,91,23,751,91,2014-10-02T02:20:00,0,28199978,192813
OK,91,23,751,91,2014-10-02T02:25:00,0,28200419,192813
OK,91,23,751,91,2014-10-02T02:30:00,0,28200864,192813
OK,91,23,751,91,2014-10-02T02:35:00,0,28201304,192813
OK,91,23,751,91,2014-10-02T02:45:00,0,28201744,192813
OK,91,23,751,91,2014-10-02T02:50:00,0,28202193,192813
OK,91,23,751,91,2014-10-02T02:55:00,0,28202641,192813
OK,91,23,751,91,2014-10-02T03:00:00,0,28203084,192813
OK,91,23,751,91,2014-10-02T03:05:00,0,28203530,192813
OK,91,23,751,91,2014-10-02T03:10:00,0,28203967,192813
OK,91,23,751,91,2014-10-02T03:30:00,0,28204416,192813
OK,91,23,751,91,2014-10-02T03:35:00,0,28204865,192813
OK,91,23,751,91,2014-10-02T03:40:00,0,28205314,192813
OK,91,23,751,91,2014-10-02T03:45:00,0,28205742,192813
OK,91,23,751,91,2014-10-02T03:55:00,0,28206572,192813
OK,91,23,751,91,2014-10-02T04:00:00,0,28207021,192813
OK,91,23,751,91,2014-10-02T04:05:00,0,28207470,192813
OK,91,23,751,91,2014-10-02T04:10:00,0,28207889,192813
OK,91,23,751,91,2014-10-02T04:15:00,0,28208338,192813
OK,91,23,751,91,2014-10-02T04:20:00,0,28208765,192813
OK,91,23,751,91,2014-10-02T04:25:00,0,28209214,192813
OK,91,23,751,91,2014-10-02T04:30:00,0,28209652,192813
OK,91,23,751,91,2014-10-02T04:35:00,0,28210101,192813
OK,91,23,751,91,2014-10-02T04:40:00,0,28210524,192813
OK,91,23,751,91,2014-10-02T04:45:00,0,28210973,192813
OK,91,23,751,91,2014-10-02T04:50:00,0,28211398,192813
OK,91,23,751,91,2014-10-02T05:00:00,0,28212220,192813
OK,91,23,751,91,2014-10-02T05:05:00,0,28212669,192813
OK,91,23,751,91,2014-10-02T05:10:00,0,28213098,192813
OK,91,23,751,91,2014-10-02T05:15:00,0,28213547,192813
OK,91,23,751,91,2014-10-02T05:20:00,0,28213985,192813
OK,93,22,751,93,2014-10-02T05:25:00,4,28214434,192813
OK,58,36,751,58,2014-10-02T05:30:00,0,28214847,192813
OK,58,36,751,58,2014-10-02T05:35:00,0,28215296,192813
OK,58,36,751,58,2014-10-02T05:40:00,0,28215712,192813
OK,58,36,751,58,2014-10-02T05:45:00,0,28216161,192813
OK,58,36,751,58,2014-10-02T05:50:00,0,28216500,192813
OK,50,42,751,50,2014-10-02T05:55:00,1,28216940,192813
OK,50,42,751,50,2014-10-02T06:00:00,1,28217387,192813
OK,50,42,751,50,2014-10-02T06:05:00,0,28217836,192813
OK,50,42,751,50,2014-10-02T06:10:00,0,28218275,192813
OK,59,35,751,59,2014-10-02T06:15:00,3,28218724,192813
OK,59,35,751,59,2014-10-02T06:20:00,2,28219144,192813
OK,59,35,751,59,2014-10-02T06:30:00,0,28219966,192813
OK,59,35,751,59,2014-10-02T06:35:00,0,28220415,192813
OK,59,35,751,59,2014-10-02T06:40:00,0,28220849,192813
OK,59,35,751,59,2014-10-02T06:45:00,0,28221298,192813
OK,38,55,751,38,2014-10-02T07:00:00,3,28221963,192813
OK,38,55,751,38,2014-10-02T07:05:00,1,28222110,192813
OK,38,55,751,38,2014-10-02T07:10:00,0,28222559,192813
OK,38,55,751,38,2014-10-02T07:15:00,0,28223008,192813
OK,38,55,751,38,2014-10-02T07:20:00,0,28223438,192813
OK,89,23,751,89,2014-10-02T07:25:00,2,28223874,192813
OK,91,23,751,91,2014-10-02T07:35:00,2,28224677,192813
OK,96,21,751,96,2014-10-02T07:40:00,1,28225126,192813
OK,93,22,751,93,2014-10-02T07:50:00,1,28225897,192813
OK,93,22,751,93,2014-10-02T07:55:00,1,28226346,192813
OK,93,22,751,93,2014-10-02T08:00:00,0,28226787,192813
OK,93,22,751,93,2014-10-02T08:05:00,0,28227236,192813
OK,93,22,751,93,2014-10-02T08:10:00,0,28227651,192813
OK,89,23,751,89,2014-10-02T08:20:00,0,28228459,192813
OK,91,23,751,91,2014-10-02T08:25:00,3,28228908,192813
OK,38,55,751,38,2014-10-02T08:30:00,1,28229318,192813
OK,98,21,751,98,2014-10-02T08:40:00,0,28230117,192813
OK,98,21,751,98,2014-10-02T08:45:00,0,28230560,192813
OK,70,30,751,70,2014-10-02T08:50:00,2,28230932,192813
OK,98,21,751,98,2014-10-02T08:55:00,1,28231379,192813
OK,87,24,751,87,2014-10-02T09:00:00,3,28231804,192813
OK,81,26,751,81,2014-10-02T09:15:00,2,28232595,192813
OK,82,25,751,82,2014-10-02T09:20:00,0,28233044,192813
OK,91,23,751,91,2014-10-02T09:25:00,3,28233493,192813
OK,81,26,751,81,2014-10-02T09:30:00,0,28233917,192813
OK,44,47,751,44,2014-10-02T09:40:00,0,28234699,192813
OK,82,25,751,82,2014-10-02T09:45:00,0,28235148,192813
OK,82,25,751,82,2014-10-02T09:50:00,0,28235575,192813
OK,66,31,751,66,2014-10-02T09:55:00,2,28236024,192813
OK,46,45,751,46,2014-10-02T10:00:00,1,28236467,192813
OK,84,25,751,84,2014-10-02T10:10:00,2,28237316,192813
OK,84,25,751,84,2014-10-02T10:15:00,4,28237764,192813
OK,90,23,751,90,2014-10-02T10:20:00,2,28238213,192813
OK,157,13,751,157,2014-10-02T10:25:00,0,28238660,192813
OK,157,13,751,157,2014-10-02T10:30:00,0,28239101,192813
OK,77,27,751,77,2014-10-02T10:35:00,1,28239550,192813
OK,78,27,751,78,2014-10-02T10:40:00,4,28239980,192813
OK,85,24,751,85,2014-10-02T10:45:00,6,28240429,192813
OK,93,22,751,93,2014-10-02T10:50:00,2,28240873,192813
OK,92,22,751,92,2014-10-02T10:55:00,1,28241322,192813
OK,92,22,751,92,2014-10-02T11:00:00,1,28241754,192813
OK,92,22,751,92,2014-10-02T11:05:00,0,28242192,192813
OK,76,27,751,76,2014-10-02T11:10:00,3,28242598,192813
OK,74,28,751,74,2014-10-02T11:15:00,1,28243047,192813
OK,86,24,751,86,2014-10-02T11:20:00,3,28243496,192813
OK,84,25,751,84,2014-10-02T11:25:00,0,28243821,192813
OK,84,25,751,84,2014-10-02T11:30:00,0,28244258,192813
OK,80,26,751,80,2014-10-02T11:35:00,1,28244688,192813
OK,80,26,751,80,2014-10-02T11:40:00,1,28245137,192813
OK,80,26,751,80,2014-10-02T11:45:00,0,28245583,192813
OK,43,49,751,43,2014-10-02T11:50:00,1,28245992,192813
OK,43,49,751,43,2014-10-02T11:55:00,3,28246441,192813
OK,88,23,751,88,2014-10-02T12:00:00,2,28246878,192813
OK,91,23,751,91,2014-10-02T12:05:00,1,28247326,192813
OK,91,23,751,91,2014-10-02T12:10:00,0,28247772,192813
OK,91,23,751,91,2014-10-02T12:15:00,2,28248203,192813
OK,91,23,751,91,2014-10-02T12:20:00,2,28248652,192813
OK,69,30,751,69,2014-10-02T12:25:00,1,28249099,192813
OK,69,30,751,69,2014-10-02T12:30:00,0,28249527,192813
OK,79,26,751,79,2014-10-02T12:35:00,4,28249963,192813
OK,89,23,751,89,2014-10-02T12:45:00,4,28251119,192813
OK,150,14,751,150,2014-10-02T13:20:00,3,28251664,192813
OK,83,25,751,83,2014-10-02T13:30:00,1,28252107,192813
OK,83,25,751,83,2014-10-02T13:35:00,0,28252248,192813
OK,83,25,751,83,2014-10-02T13:40:00,0,28252693,192813
OK,80,26,751,80,2014-10-02T13:50:00,2,28253556,192813
OK,97,21,751,97,2014-10-02T13:55:00,2,28254282,192813
OK,130,16,751,130,2014-10-02T14:10:00,8,28254859,192813
OK,87,24,751,87,2014-10-02T14:20:00,4,28255308,192813
OK,75,28,751,75,2014-10-02T14:25:00,2,28255750,192813
OK,109,19,751,109,2014-10-02T14:30:00,3,28256185,192813
OK,52,40,751,52,2014-10-02T14:40:00,2,28257062,192813
OK,43,49,751,43,2014-10-02T14:45:00,1,28257508,192813
OK,43,49,751,43,2014-10-02T14:50:00,0,28257951,192813
OK,102,20,751,102,2014-10-02T14:55:00,1,28258393,192813
OK,95,22,751,95,2014-10-02T15:05:00,4,28259279,192813
OK,95,22,751,95,2014-10-02T15:10:00,2,28259727,192813
OK,111,19,751,111,2014-10-02T15:20:00,1,28260608,192813
OK,53,39,751,53,2014-10-02T15:25:00,2,28261049,192813
OK,49,43,751,49,2014-10-02T15:35:00,4,28261860,192813
OK,46,45,751,46,2014-10-02T15:45:00,3,28262754,192813
OK,46,45,751,46,2014-10-02T15:50:00,1,28263632,192813
OK,46,45,751,46,2014-10-02T15:55:00,0,28264034,192813
OK,69,30,751,69,2014-10-02T16:05:00,3,28264483,192813
OK,101,20,751,101,2014-10-02T16:10:00,3,28264924,192813
OK,101,20,751,101,2014-10-02T16:15:00,0,28265757,192813
OK,102,20,751,102,2014-10-02T16:25:00,0,28266206,192813
OK,88,23,751,88,2014-10-02T16:30:00,1,28266655,192813
OK,88,23,751,88,2014-10-02T16:35:00,0,28267427,192813
OK,67,31,751,67,2014-10-02T16:45:00,2,28267876,192813
OK,58,36,751,58,2014-10-02T16:55:00,2,28268767,192813
OK,38,55,751,38,2014-10-02T17:00:00,0,28269216,192813
OK,38,55,751,38,2014-10-02T17:05:00,0,28269658,192813
OK,38,55,751,38,2014-10-02T17:10:00,0,28270100,192813
OK,49,43,751,49,2014-10-02T17:20:00,3,28270983,192813
OK,31,68,751,31,2014-10-02T17:30:00,0,28271861,192813
OK,31,68,751,31,2014-10-02T17:35:00,0,28272304,192813
OK,31,68,751,31,2014-10-02T17:40:00,0,28272740,192813
OK,90,23,751,90,2014-10-02T17:45:00,1,28273187,192813
OK,90,23,751,90,2014-10-02T17:50:00,0,28273635,192813
OK,90,23,751,90,2014-10-02T17:55:00,0,28274081,192813
OK,90,23,751,90,2014-10-02T18:00:00,0,28274528,192813
OK,90,23,751,90,2014-10-02T18:05:00,0,28275298,192813
OK,90,23,751,90,2014-10-02T18:10:00,0,28275739,192813
OK,90,23,751,90,2014-10-02T18:15:00,0,28276186,192813
OK,90,23,751,90,2014-10-02T18:20:00,0,28276581,192813
OK,92,22,751,92,2014-10-02T18:35:00,1,28277030,192813
OK,92,22,751,92,2014-10-02T18:40:00,0,28277479,192813
OK,92,22,751,92,2014-10-02T18:45:00,0,28277927,192813
OK,94,22,751,94,2014-10-02T19:00:00,0,28278725,192813
OK,91,23,751,91,2014-10-02T19:05:00,0,28279174,192813
OK,91,23,751,91,2014-10-02T19:15:00,0,28279619,192813
OK,91,23,751,91,2014-10-02T19:20:00,0,28280508,192813
OK,56,37,751,56,2014-10-02T19:25:00,0,28280911,192813
OK,56,37,751,56,2014-10-02T19:35:00,0,28281360,192813
OK,56,37,751,56,2014-10-02T19:40:00,0,28281809,192813
OK,56,37,751,56,2014-10-02T19:50:00,0,28282689,192813